Tracking 28096 objects as of 29-Sep-2023
HD Live streaming from Space Station
objects crossing your sky now

STARLINK-3858

Track STARLINK-3858 now!
10-day predictions
STARLINK-3858 is classified as:


NORAD ID: 52553
Int'l Code: 2022-051W
Perigee: 551.3 km
Apogee: 552.6 km
Inclination: 53.2 °
Period: 95.5 minutes
Semi major axis: 6922 km
RCS: Unknown
Launch date: May 13, 2022
Source: United States (US)
Launch site: AIR FORCE WESTERN TEST RANGE (AFWTR)
Your satellite tracking list
Your tracking list is empty




NASA's NSSDC Master Catalog

Two Line Element Set (TLE):
1 52553U 22051W   23271.90834719  .00001950  00000-0  14669-3 0  9990
2 52553  53.2160 177.2122 0000976  62.0088 298.1002 15.07190638 76664
Source of the keplerian elements: AFSPC